Location: Del Amo
(33.8464°N, 118.2104°W)
Time: 17:26:23
(UTC+00:00)

ISS - Visible Passes

Search period start: 15 May 2026 00:00
Search period end: 25 May 2026 00:00
Orbit: 414 x 424 km, 51.6° (Epoch: 15 May)

Date Brightness Start Highest point End Pass type
(mag) Time Alt. Az. Time Alt. Az. Time Alt. Az.
19 May -0.4 06:00:19 10° N 06:00:32 11° N 06:00:32 11° N visible
21 May -0.5 06:00:44 10° NNW 06:01:23 14° NNW 06:01:23 14° NNW visible
22 May -1.4 05:13:24 10° NNW 05:15:22 19° NNE 05:15:22 19° NNE visible
23 May -1.2 04:26:19 10° N 04:28:04 14° NNE 04:29:23 11° NE visible
23 May -0.6 06:01:51 10° NW 06:02:19 13° NW 06:02:19 13° NW visible
24 May -2.2 05:14:10 10° NW 05:16:22 36° NNW 05:16:22 36° NNW visible
